Owosso, MI

1:39 PM EDT on July 27, 2017 (GMT -0400)
Owosso

Weather History for KRNP - February, 2014

Change the Weather History Date:

Wednesday, February 19, 2014

  Actual Average (KFNT) Record (KFNT)
Temperature  
Mean Temperature 33 °F -  
Max Temperature 42 °F 35 °F 62 °F (2016)
Min Temperature 24 °F 21 °F -14 °F (1944)
Degree Days  
Heating Degree Days 32    
Moisture  
Dew Point 27 °F    
Average Humidity 74    
Maximum Humidity 98    
Minimum Humidity 52    
Precipitation  
Precipitation 0.00 in - - ()
Sea Level Pressure  
Sea Level Pressure 29.78 in    
Wind  
Wind Speed 8 mph (WSW)    
Max Wind Speed 17 mph    
Max Gust Speed 21 mph    
Visibility 9 miles    
Events Snow    
Averages and records for this station are not official NWS values.
T = Trace of Precipitation, MM = Missing Value Source: NWS Daily Summary

Daily Weather History Graph

Daily Weather History Graph

Search for Another Location

Airport or City:

Trip Planner

Search our weather history database for the weather conditions in past years. The results will help you decide how hot, cold, wet, or windy it might be!

Date:

Astronomy

Feb. 19, 2014 Rise Set
Actual Time 7:28 AM EST 6:13 PM EST
Civil Twilight 6:59 AM EST 6:42 PM EST
Nautical Twilight 6:26 AM EST 7:15 PM EST
Astronomical Twilight 5:53 AM EST 7:48 PM EST
Moon 11:14 PM EST (2/19) 9:25 AM EST (2/19)
Length of Visible Light 11h 42m
Length of Day
10h 44m
Waning Gibbous, 80% of the Moon is Illuminated
Feb 19
Waning Gibbous
Feb 22
Last Quarter
Mar 1
New
Mar 8
First Quarter
Mar 16
Full

Hourly Weather History & Observations

Time (EST) Temp. Windchill Dew Point Humidity Pressure Visibility Wind Dir Wind Speed Gust Speed Precip Events Conditions
12:14 AM 42.3 °F 35.5 °F 26.6 °F 54% 29.61 in 10.0 mi South 12.7 mph 18.4 mph N/A   Clear
12:35 AM 41.2 °F 35.5 °F 27.0 °F 57% 29.61 in 10.0 mi SSW 9.2 mph - N/A   Clear
12:55 AM 40.6 °F 35.4 °F 27.0 °F 58% 29.60 in 10.0 mi SSW 8.1 mph - N/A   Clear
1:14 AM 40.1 °F 35.3 °F 27.0 °F 59% 29.60 in 10.0 mi SSW 6.9 mph - N/A   Clear
1:35 AM 38.8 °F 34.6 °F 27.0 °F 62% 29.60 in 10.0 mi SSW 5.8 mph - N/A   Clear
1:55 AM 37.2 °F 33.6 °F 26.6 °F 65% 29.59 in 10.0 mi SSW 4.6 mph - N/A   Clear
2:14 AM 36.5 °F 33.9 °F 26.8 °F 68% 29.59 in 10.0 mi SSW 3.5 mph - N/A   Clear
2:35 AM 36.5 °F 33.9 °F 27.1 °F 69% 29.59 in 10.0 mi SSW 3.5 mph - N/A   Clear
2:54 AM 31.6 °F 28.3 °F 24.6 °F 75% 29.58 in 10.0 mi South 3.5 mph - N/A   Clear
3:15 AM 28.2 °F - 24.8 °F 87% 29.58 in 10.0 mi Calm Calm - N/A   Clear
3:35 AM 26.8 °F - 24.8 °F 92% 29.58 in 10.0 mi Calm Calm - N/A   Clear
3:54 AM 24.4 °F - 22.5 °F 92% 29.58 in 10.0 mi Calm Calm - N/A   Clear
4:15 AM 26.4 °F 22.4 °F 25.9 °F 98% 29.59 in 10.0 mi West 3.5 mph - N/A   Clear
4:35 AM 27.5 °F 23.6 °F 26.1 °F 94% 29.59 in 10.0 mi WSW 3.5 mph - N/A   Clear
4:54 AM 28.6 °F 23.5 °F 26.6 °F 92% 29.59 in 10.0 mi West 4.6 mph - N/A   Clear
5:15 AM 29.3 °F 23.2 °F 25.9 °F 87% 29.59 in 10.0 mi West 5.8 mph - N/A   Clear
5:35 AM 30.4 °F 25.6 °F 26.6 °F 86% 29.59 in 10.0 mi West 4.6 mph - N/A   Clear
5:54 AM 30.2 °F 26.7 °F 26.6 °F 86% 29.59 in 10.0 mi WNW 3.5 mph - N/A   Clear
6:15 AM 30.0 °F 26.5 °F 25.3 °F 83% 29.58 in 10.0 mi WSW 3.5 mph - N/A   Scattered Clouds
6:35 AM 26.4 °F 22.4 °F 23.9 °F 90% 29.59 in 10.0 mi West 3.5 mph - N/A   Mostly Cloudy
6:54 AM 30.6 °F 25.8 °F 27.7 °F 89% 29.59 in 10.0 mi WNW 4.6 mph - N/A   Overcast
7:15 AM 30.2 °F 24.3 °F 26.8 °F 87% 29.61 in 10.0 mi West 5.8 mph - N/A   Overcast
7:34 AM 31.1 °F 23.1 °F 28.0 °F 88% 29.63 in 10.0 mi WSW 9.2 mph - N/A   Overcast
7:55 AM 31.8 °F 23.3 °F 28.4 °F 87% 29.66 in 10.0 mi West 10.4 mph - N/A   Overcast
8:15 AM 32.0 °F 24.2 °F 28.4 °F 87% 29.66 in 10.0 mi West 9.2 mph - N/A   Overcast
8:34 AM 32.0 °F 24.2 °F 28.4 °F 87% 29.67 in 10.0 mi West 9.2 mph - N/A   Mostly Cloudy
8:55 AM 32.4 °F 23.5 °F 29.1 °F 88% 29.70 in 7.0 mi West 11.5 mph - N/A   Mostly Cloudy
9:15 AM 32.9 °F 22.8 °F 29.3 °F 87% 29.71 in 4.0 mi WNW 15.0 mph 18.4 mph N/A Snow Light Snow
9:34 AM 32.2 °F 22.3 °F 30.7 °F 94% 29.73 in 1.2 mi WNW 13.8 mph - N/A Snow Light Snow
9:55 AM 32.4 °F 24.6 °F 31.6 °F 97% 29.74 in 0.5 mi West 9.2 mph - N/A Snow Snow
10:15 AM 33.3 °F 24.6 °F 32.0 °F 95% 29.75 in 2.5 mi West 11.5 mph - N/A Snow Light Snow
10:34 AM 33.4 °F 25.4 °F 32.0 °F 94% 29.76 in 3.0 mi West 10.4 mph - N/A   Overcast
10:55 AM 34.3 °F 25.5 °F 32.0 °F 91% 29.77 in 4.0 mi West 12.7 mph - N/A   Mostly Cloudy
11:15 AM 35.1 °F 27.4 °F 32.0 °F 89% 29.77 in 5.0 mi West 10.4 mph - N/A   Scattered Clouds
11:34 AM 36.0 °F 27.1 °F 31.5 °F 84% 29.78 in 5.0 mi West 13.8 mph - N/A   Haze
11:55 AM 36.7 °F 28.0 °F 30.9 °F 80% 29.79 in 7.0 mi West 13.8 mph - N/A   Clear
12:15 PM 37.6 °F 29.6 °F 30.7 °F 76% 29.79 in 5.0 mi West 12.7 mph 17.3 mph N/A   Haze
12:34 PM 37.4 °F 28.9 °F 30.6 °F 76% 29.79 in 7.0 mi West 13.8 mph - N/A   Clear
12:55 PM 37.8 °F 28.3 °F 29.8 °F 73% 29.81 in 7.0 mi West 17.3 mph - N/A   Clear
1:15 PM 38.5 °F 30.3 °F 29.8 °F 71% 29.81 in 7.0 mi West 13.8 mph 20.7 mph N/A   Clear
1:34 PM 38.8 °F 30.8 °F 29.5 °F 69% 29.81 in 7.0 mi West 13.8 mph 18.4 mph N/A   Clear
1:55 PM 39.4 °F 31.8 °F 29.7 °F 68% 29.82 in 7.0 mi West 12.7 mph - N/A   Clear
2:15 PM 40.3 °F 33.0 °F 29.1 °F 64% 29.84 in 10.0 mi WSW 12.7 mph 19.6 mph N/A   Clear
2:34 PM 41.0 °F 33.1 °F 29.1 °F 63% 29.84 in 7.0 mi WSW 15.0 mph 19.6 mph N/A   Clear
2:55 PM 41.2 °F 33.7 °F 28.9 °F 62% 29.84 in 10.0 mi WSW 13.8 mph - N/A   Clear
3:14 PM 41.4 °F 34.7 °F 28.4 °F 60% 29.85 in 10.0 mi WSW 11.5 mph - N/A   Clear
3:35 PM 42.1 °F 36.1 °F 28.2 °F 58% 29.86 in 10.0 mi West 10.4 mph 17.3 mph N/A   Clear
3:55 PM 42.4 °F 36.1 °F 27.1 °F 55% 29.87 in 10.0 mi WSW 11.5 mph 17.3 mph N/A   Clear
4:15 PM 42.1 °F 36.1 °F 27.3 °F 56% 29.89 in 10.0 mi WSW 10.4 mph - N/A   Clear
4:35 PM 41.9 °F 35.4 °F 26.2 °F 54% 29.89 in 10.0 mi WSW 11.5 mph 18.4 mph N/A   Clear
4:54 PM 41.9 °F 35.0 °F 25.9 °F 53% 29.90 in 10.0 mi WSW 12.7 mph - N/A   Clear
5:15 PM 41.4 °F 34.7 °F 25.3 °F 53% 29.92 in 10.0 mi SW 11.5 mph 18.4 mph N/A   Clear
5:35 PM 41.0 °F 33.5 °F 24.8 °F 53% 29.93 in 10.0 mi WSW 13.8 mph - N/A   Clear
5:54 PM 40.5 °F 33.6 °F 24.1 °F 52% 29.94 in 10.0 mi SW 11.5 mph 18.4 mph N/A   Clear
6:15 PM 39.4 °F 33.2 °F 23.9 °F 54% 29.96 in 10.0 mi WSW 9.2 mph - N/A   Clear
6:35 PM 39.2 °F 34.2 °F 24.1 °F 55% 29.97 in 10.0 mi WSW 6.9 mph - N/A   Clear
6:54 PM 38.5 °F 34.1 °F 24.4 °F 57% 29.98 in 10.0 mi SW 5.8 mph - N/A   Clear
7:15 PM 38.3 °F 33.2 °F 24.4 °F 57% 29.99 in 10.0 mi SW 6.9 mph - N/A   Clear
7:34 PM 37.8 °F 34.2 °F 24.3 °F 58% 29.99 in 10.0 mi SW 4.6 mph - N/A   Clear
7:55 PM 36.9 °F 34.3 °F 23.9 °F 59% 29.99 in 10.0 mi SW 3.5 mph - N/A   Clear
8:15 PM 36.1 °F 32.3 °F 23.9 °F 61% 29.99 in 10.0 mi SW 4.6 mph - N/A   Clear
8:34 PM 35.8 °F 31.9 °F 23.9 °F 62% 30.00 in 10.0 mi SSW 4.6 mph - N/A   Clear
8:55 PM 34.7 °F 31.8 °F 24.1 °F 65% 30.00 in 10.0 mi SSW 3.5 mph - N/A   Clear
9:15 PM 34.5 °F - 23.9 °F 65% 30.00 in 10.0 mi Calm Calm - N/A   Clear
9:34 PM 27.7 °F - 21.7 °F 78% 30.00 in 10.0 mi Calm Calm - N/A   Clear
9:55 PM 28.9 °F - 23.9 °F 81% 30.00 in 10.0 mi Calm Calm - N/A   Clear
10:15 PM 29.8 °F - 23.2 °F 76% 30.00 in 10.0 mi Calm Calm - N/A   Clear
10:34 PM 30.4 °F - 25.0 °F 80% 30.00 in 10.0 mi Calm Calm - N/A   Clear
10:55 PM 32.0 °F 28.7 °F 24.8 °F 75% 30.00 in 10.0 mi South 3.5 mph - N/A   Clear
11:14 PM 32.0 °F 28.7 °F 24.8 °F 75% 30.01 in 10.0 mi South 3.5 mph - N/A   Clear
11:35 PM 32.0 °F 26.4 °F 25.2 °F 76% 30.00 in 10.0 mi South 5.8 mph - N/A   Clear
11:54 PM 32.0 °F 28.7 °F 25.2 °F 76% 30.00 in 10.0 mi South 3.5 mph - N/A   Clear